User: anonymous   Login
Location: Lancaster
(34.6980°N, 118.1360°W)
Time: 08:14:55
(UTC-07:00)
Language:

ITAMSAT 1 - Orbit

View from above orbital plane
View from above orbital plane
View from above satellite
View from above satellite

Ground track
Ground track

The orbit data is extracted from the following two-line orbital elements,

1 22826U 93061D   18226.92704424 -.00000022  00000-0  94366-5 0  9998
2 22826  98.8616 204.1530 0009241 158.3018 201.8557 14.30368376298151
Epoch (UTC): 14 August 2018 22:14:56
Eccentricity: 0.0009241
inclination: 98.8616°
perigee height: 784 km
apogee height: 797 km
right ascension of ascending node: 204.1530°
argument of perigee: 158.3018°
revolutions per day: 14.30368376
mean anomaly at epoch: 201.8557°
orbit number at epoch: 29815

The dashed part of the orbit path shows where the satellite is in the earth's shadow,  

DLR